Flag for U.S.A. Weather past 2 weeks in Riverside, California, U.S.A.

Now
54 °F

Clear.


Feels Like: 53 °F
Forecast: 47 / 79 °F
Wind: 5 mph from West

Location: Riverside Municipal Airport


UV Index: 7 (High)

Visibility: 10 mi


Pressure: 29.90 "Hg

Humidity: 77%

Dew point: 47 °F

Location of RiversideLocation

Historic Weather in Riverside

°F

Riverside temperature yesterday

Maximum temperature yesterday: 73 °F (at 2:53 PM)
Minimum temperature yesterday: 57 °F (at 10:53 PM)
Average temperature yesterday: 63 °F

Past Weeks' High & Low Weather Summary

 TemperatureHumidityPressure
High93 °F (Apr 8, 3:53 PM)97% (Apr 16, 7:02 AM)30.08 "Hg (Apr 16, 7:02 AM)
Low50 °F (Apr 14, 5:53 AM)2% (Apr 9, 1:53 PM)29.73 "Hg (Apr 16, 3:53 PM)
Average67 °F51%29.91 "Hg
* Reported Apr 8 3:53 AM — Apr 23 3:53 AM, Riverside, Weather by CustomWeather, © 2014

Note: Actual official high and low records may vary slightly from our data, if they occured in-between our weather recording intervals... More about our weather records

Advertising

Historic Weather Conditions — Data for Previous 24 hours

 ConditionsComfort  
Time TempWeatherWind HumidityBarometerVisibility
3:53 AM
Apr 23
54 °FClear.5 mph77%29.90 "Hg10 mi
2:53 AM56 °FClear.No wind77%29.89 "Hg10 mi
1:53 AM56 °FClear.No wind77%29.90 "Hg10 mi
12:53 AM56 °FClear.No wind75%29.91 "Hg10 mi
11:53 PM
Apr 22
58 °FClear.No wind70%29.90 "Hg10 mi
10:53 PM57 °FClear.No wind72%29.90 "Hg10 mi
9:53 PM60 °FClear.No wind65%29.90 "Hg10 mi
8:53 PM61 °FClear.9 mph62%29.87 "Hg10 mi
7:53 PM62 °FSunny.10 mph58%29.85 "Hg10 mi
6:53 PM66 °FSunny.13 mph50%29.84 "Hg10 mi
5:53 PM69 °FSunny.12 mph44%29.83 "Hg10 mi
4:53 PM71 °FSunny.13 mph44%29.83 "Hg10 mi
3:53 PM72 °FPassing clouds.10 mph40%29.84 "Hg10 mi
2:53 PM73 °FPassing clouds.7 mph40%29.86 "Hg10 mi
1:53 PM71 °FScattered clouds.7 mph45%29.89 "Hg10 mi
12:53 PM70 °FScattered clouds.6 mph47%29.91 "Hg10 mi
11:53 AM66 °FSunny.No wind56%29.92 "Hg10 mi
10:53 AM63 °FOvercast.5 mph65%29.95 "Hg10 mi
9:53 AM60 °FFog.5 mph72%29.94 "Hg10 mi
8:53 AM60 °FFog.5 mph78%29.93 "Hg6 mi
7:53 AM59 °FFog.3 mph81%29.92 "Hg5 mi
6:58 AM57 °FFog.6 mph88%29.95 "Hg5 mi
6:53 AM58 °FFog.No wind84%29.91 "Hg5 mi
5:53 AM59 °FOvercast.3 mph84%29.90 "Hg7 mi
Weather by CustomWeather, © 2014

See weather overview